Flag for Canada Weather past 2 weeks in Brantford, Ontario, Canada

32 °F


Feels Like: 25 °F
Forecast: 24 / 38 °F
Wind: 8 mph from Northeast

Location: Hamilton Airport

Current Time: Nov 28, 2015 at 10:57:14 AM

Latest Report: Nov 28, 2015 at 10:00 AM

Visibility: 15 mi

Pressure: 30.37 "Hg

Humidity: 80%

Dew point: 27 °F

Location of BrantfordLocation

Historic Weather in Brantford — Graph


Brantford temperature yesterday

Maximum temperature yesterday: 57 °F (at 3:00 AM)
Minimum temperature yesterday: 36 °F (at 9:00 PM)
Average temperature yesterday: 50 °F

Past Weeks' High & Low Weather Summary

High61 °F (Nov 18, 1:00 PM)100% (Nov 14, 6:00 AM)30.58 "Hg (Nov 14, 6:00 AM)
Low18 °F (Nov 23, 5:00 AM)39% (Nov 19, 11:00 PM)29.60 "Hg (Nov 21, 11:00 PM)
Average41 °F75%30.17 "Hg
* Reported Nov 13 9:00 AM — Nov 28 9:00 AM, Brantford, Weather by CustomWeather, © 2015

Note: Actual official high and low records may vary slightly from our data, if they occured in-between our weather recording intervals... More about our weather records


Brantford weather history for previous 24 hours

Time TempWeatherWind HumidityBarometerVisibility
9:00 AM
Sat, Nov 28
30 °FLow clouds.7 mph86%30.36 "Hg15 mi
8:00 AM30 °FOvercast.10 mph86%30.36 "Hg15 mi
7:00 AM30 °FOvercast.9 mph86%30.36 "Hg15 mi
6:00 AM32 °FLight snow. Overcast.10 mph87%30.34 "Hg15 mi
5:00 AM32 °FLight snow. Mostly cloudy.13 mph87%30.33 "Hg15 mi
4:00 AM32 °FLight snow. Mostly cloudy.10 mph87%30.33 "Hg15 mi
3:00 AM32 °FLight snow. Overcast.10 mph87%30.34 "Hg15 mi
1:00 AM34 °FLight rain. Mostly cloudy.6 mph93%30.33 "Hg15 mi
12:00 AM34 °FLight rain. Mostly cloudy.7 mph93%30.33 "Hg12 mi
11:00 PM
Fri, Nov 27
36 °FLight rain. Overcast.5 mph87%30.33 "Hg8 mi
10:00 PM36 °FLight rain. Overcast.7 mph87%30.32 "Hg7 mi
9:00 PM36 °FDrizzle. Mostly cloudy.13 mph93%30.32 "Hg15 mi
8:00 PM37 °FLight rain. Fog.12 mph93%30.31 "Hg6 mi
7:00 PM41 °FLight rain. Fog.14 mph93%30.29 "Hg6 mi
6:00 PM45 °FDrizzle. Low clouds.12 mph93%30.26 "Hg5 mi
5:00 PM46 °FLight rain. Fog.8 mph100%30.22 "Hg4 mi
4:00 PM52 °FLight rain. Fog.13 mph94%30.19 "Hg4 mi
3:00 PM54 °FLight rain. Low clouds.22 mph94%30.17 "Hg10 mi
2:00 PM54 °FLight rain. Mostly cloudy.21 mph94%30.17 "Hg15 mi
1:00 PM54 °FLight rain. Mostly cloudy.23 mph94%30.19 "Hg15 mi
12:00 PM54 °FLight rain. Mostly cloudy.18 mph88%30.20 "Hg12 mi
11:00 AM54 °FLight rain. Mostly cloudy.22 mph88%30.22 "Hg12 mi
10:00 AM55 °FLight rain. Cloudy.18 mph72%30.22 "Hg15 mi
Weather by CustomWeather, © 2015

See weather overviewHow to use our weather pages